Time,TemperatureF,DewpointF,PressureIn,WindDirection,WindDirectionDegrees,WindSpeedMPH,WindSpeedGustMPH,Humidity,HourlyPrecipIn,Conditions,Clouds,dailyrainin,SolarRadiationWatts/m^2,SoftwareType,DateUTC
2013-02-15 00:00:00,32.5,22.1,29.73,WNW,282,0.0,0.0,65,0.00,,OVC044,0.00,0.00,VWS V14.01,2013-02-15 05:00:00,
2013-02-15 00:05:00,32.5,21.7,29.73,West,259,0.0,0.0,64,0.00,,OVC044,0.00,0.00,VWS V14.01,2013-02-15 05:05:00,
2013-02-15 00:10:00,32.5,21.7,29.73,WNW,294,0.0,0.0,64,0.00,,OVC044,0.00,0.00,VWS V14.01,2013-02-15 05:10:00,
2013-02-15 00:15:00,32.5,21.7,29.73,WNW,286,0.0,0.0,64,0.00,,OVC044,0.00,0.00,VWS V14.01,2013-02-15 05:15:00,
2013-02-15 00:20:00,32.5,21.7,29.73,WNW,286,0.0,0.0,64,0.00,,OVC044,0.00,0.00,VWS V14.01,2013-02-15 05:20:00,
2013-02-15 00:25:00,32.5,21.7,29.73,WNW,286,0.0,0.0,64,0.00,,OVC044,0.00,0.00,VWS V14.01,2013-02-15 05:25:00,
2013-02-15 00:30:00,32.5,21.7,29.73,WNW,286,0.0,0.0,64,0.00,,OVC044,0.00,0.00,VWS V14.01,2013-02-15 05:30:00,
2013-02-15 00:35:00,32.5,21.7,29.73,WNW,286,0.0,0.0,64,0.00,,OVC044,0.00,0.00,VWS V14.01,2013-02-15 05:35:00,
2013-02-15 00:40:00,32.5,22.1,29.73,WNW,286,0.0,0.0,65,0.00,,OVC044,0.00,0.00,VWS V14.01,2013-02-15 05:40:00,
2013-02-15 00:45:00,32.4,22.0,29.73,West,271,0.0,0.0,65,0.00,,OVC044,0.00,0.00,VWS V14.01,2013-02-15 05:45:00,
2013-02-15 00:50:00,32.4,22.0,29.74,West,271,0.0,0.0,65,0.00,,OVC044,0.00,0.00,VWS V14.01,2013-02-15 05:50:00,
2013-02-15 00:55:00,32.2,22.1,29.74,West,271,0.0,0.0,66,0.00,,OVC044,0.00,0.00,VWS V14.01,2013-02-15 05:55:00,
2013-02-15 01:00:00,32.1,22.0,29.74,West,271,0.0,0.0,66,0.00,,OVC044,0.00,0.00,VWS V14.01,2013-02-15 06:00:00,
2013-02-15 01:05:00,31.9,21.9,29.74,West,271,0.0,0.0,66,0.00,,OVC044,0.00,0.00,VWS V14.01,2013-02-15 06:05:00,
2013-02-15 01:10:00,31.8,21.8,29.74,West,271,0.0,0.0,66,0.00,,OVC044,0.00,0.00,VWS V14.01,2013-02-15 06:10:00,
2013-02-15 01:15:00,31.8,22.1,29.74,West,271,0.0,0.0,67,0.00,,BKN080,0.00,0.00,VWS V14.01,2013-02-15 06:15:00,
2013-02-15 01:20:00,31.6,21.9,29.74,West,271,0.0,0.0,67,0.00,,BKN080,0.00,0.00,VWS V14.01,2013-02-15 06:20:00,
2013-02-15 01:25:00,31.5,21.8,29.74,West,271,1.0,0.0,67,0.00,,BKN080,0.00,0.00,VWS V14.01,2013-02-15 06:25:00,
2013-02-15 01:30:00,31.5,21.8,29.74,West,271,0.0,0.0,67,0.00,,BKN080,0.00,0.00,VWS V14.01,2013-02-15 06:30:00,
2013-02-15 01:35:00,31.3,22.0,29.74,West,271,0.0,0.0,68,0.00,,BKN080,0.00,0.00,VWS V14.01,2013-02-15 06:35:00,
2013-02-15 01:40:00,31.2,21.9,29.74,West,271,0.0,0.0,68,0.00,,BKN080,0.00,0.00,VWS V14.01,2013-02-15 06:40:00,
2013-02-15 01:45:00,31.2,22.2,29.74,West,271,0.0,0.0,69,0.00,,BKN080,0.00,0.00,VWS V14.01,2013-02-15 06:45:00,
2013-02-15 01:50:00,31.0,22.0,29.74,West,271,0.0,0.0,69,0.00,,BKN080,0.00,0.00,VWS V14.01,2013-02-15 06:50:00,
2013-02-15 01:55:00,30.9,21.9,29.74,West,271,0.0,0.0,69,0.00,,BKN080,0.00,0.00,VWS V14.01,2013-02-15 06:55:00,
2013-02-15 02:00:00,30.7,21.8,29.74,West,271,0.0,0.0,69,0.00,,BKN080,0.00,0.00,VWS V14.01,2013-02-15 07:00:00,
2013-02-15 02:05:00,30.6,22.0,29.75,West,271,0.0,0.0,70,0.00,,BKN080,0.00,0.00,VWS V14.01,2013-02-15 07:05:00,
2013-02-15 02:10:00,30.4,21.8,29.75,West,271,0.0,0.0,70,0.00,,BKN080,0.00,0.00,VWS V14.01,2013-02-15 07:10:00,
2013-02-15 02:15:00,30.3,21.7,29.75,West,271,0.0,0.0,70,0.00,,BKN080,0.00,0.00,VWS V14.01,2013-02-15 07:15:00,
2013-02-15 02:20:00,30.1,21.9,29.75,West,271,0.0,0.0,71,0.00,,BKN040,0.00,0.00,VWS V14.01,2013-02-15 07:20:00,
2013-02-15 02:25:00,30.0,21.8,29.75,West,271,0.0,0.0,71,0.00,,BKN040,0.00,0.00,VWS V14.01,2013-02-15 07:25:00,
2013-02-15 02:30:00,29.8,21.6,29.75,West,271,0.0,0.0,71,0.00,,BKN040,0.00,0.00,VWS V14.01,2013-02-15 07:30:00,
2013-02-15 02:35:00,29.7,21.5,29.75,West,271,0.0,0.0,71,0.00,,BKN040,0.00,0.00,VWS V14.01,2013-02-15 07:35:00,
2013-02-15 02:40:00,29.5,21.3,29.75,West,271,0.0,0.0,71,0.00,,BKN040,0.00,0.00,VWS V14.01,2013-02-15 07:40:00,
2013-02-15 02:45:00,29.4,21.5,29.75,West,271,0.0,0.0,72,0.00,,BKN040,0.00,0.00,VWS V14.01,2013-02-15 07:45:00,
2013-02-15 02:50:00,29.3,21.4,29.75,West,271,0.0,0.0,72,0.00,,BKN040,0.00,0.00,VWS V14.01,2013-02-15 07:50:00,
2013-02-15 02:55:00,29.1,21.2,29.75,West,271,0.0,0.0,72,0.00,,BKN040,0.00,0.00,VWS V14.01,2013-02-15 07:55:00,
2013-02-15 03:00:00,29.0,21.4,29.75,West,271,0.0,0.0,73,0.00,,BKN040,0.00,0.00,VWS V14.01,2013-02-15 08:00:00,
2013-02-15 03:05:00,28.8,21.2,29.75,West,271,0.0,0.0,73,0.00,,BKN040,0.00,0.00,VWS V14.01,2013-02-15 08:05:00,
2013-02-15 03:10:00,28.7,21.5,29.75,West,271,0.0,0.0,74,0.00,,BKN040,0.00,0.00,VWS V14.01,2013-02-15 08:10:00,
2013-02-15 03:15:00,28.7,21.5,29.75,West,271,0.0,0.0,74,0.00,,BKN040,0.00,0.00,VWS V14.01,2013-02-15 08:15:00,
2013-02-15 03:20:00,28.5,21.6,29.75,West,271,0.0,0.0,75,0.00,,BKN070,0.00,0.00,VWS V14.01,2013-02-15 08:20:00,
2013-02-15 03:25:00,28.5,21.9,29.75,West,271,0.0,0.0,76,0.00,,BKN070,0.00,0.00,VWS V14.01,2013-02-15 08:25:00,
2013-02-15 03:30:00,28.5,22.2,29.75,West,271,0.0,0.0,77,0.00,,BKN070,0.00,0.00,VWS V14.01,2013-02-15 08:30:00,
2013-02-15 03:35:00,28.5,22.2,29.76,West,271,0.0,0.0,77,0.00,,BKN070,0.00,0.00,VWS V14.01,2013-02-15 08:35:00,
2013-02-15 03:40:00,28.7,22.7,29.76,West,271,0.0,0.0,78,0.00,,BKN070,0.00,0.00,VWS V14.01,2013-02-15 08:40:00,
2013-02-15 03:45:00,28.7,22.7,29.76,West,271,0.0,0.0,78,0.00,,BKN070,0.00,0.00,VWS V14.01,2013-02-15 08:45:00,
2013-02-15 03:50:00,28.8,23.1,29.76,West,271,0.0,0.0,79,0.00,,BKN070,0.00,0.00,VWS V14.01,2013-02-15 08:50:00,
2013-02-15 03:55:00,29.0,23.3,29.76,West,279,0.0,0.0,79,0.00,,BKN070,0.00,0.00,VWS V14.01,2013-02-15 08:55:00,
2013-02-15 04:00:00,29.1,23.7,29.76,West,279,1.0,0.0,80,0.00,,BKN070,0.00,0.00,VWS V14.01,2013-02-15 09:00:00,
2013-02-15 04:05:00,29.3,23.9,29.77,NNW,331,3.0,0.0,80,0.00,,BKN070,0.00,0.00,VWS V14.01,2013-02-15 09:05:00,
2013-02-15 04:10:00,29.4,24.0,29.77,NW,319,0.0,0.0,80,0.00,,BKN070,0.00,0.00,VWS V14.01,2013-02-15 09:10:00,
2013-02-15 04:15:00,29.4,24.0,29.77,NW,319,0.0,0.0,80,0.00,,BKN070,0.00,0.00,VWS V14.01,2013-02-15 09:15:00,
2013-02-15 04:20:00,29.4,24.0,29.77,WNW,303,0.0,0.0,80,0.00,,OVC070,0.00,0.00,VWS V14.01,2013-02-15 09:20:00,
2013-02-15 04:25:00,29.4,24.0,29.77,WNW,303,0.0,0.0,80,0.00,,OVC070,0.00,0.00,VWS V14.01,2013-02-15 09:25:00,
2013-02-15 04:30:00,29.3,24.2,29.77,WNW,303,0.0,0.0,81,0.00,,OVC070,0.00,0.00,VWS V14.01,2013-02-15 09:30:00,
2013-02-15 04:35:00,29.3,24.2,29.78,NNW,327,1.0,0.0,81,0.00,,OVC070,0.00,0.00,VWS V14.01,2013-02-15 09:35:00,
2013-02-15 04:40:00,29.1,24.0,29.78,NNW,327,0.0,0.0,81,0.00,,OVC070,0.00,0.00,VWS V14.01,2013-02-15 09:40:00,
2013-02-15 04:45:00,29.1,24.3,29.78,NNW,348,0.0,0.0,82,0.00,,OVC070,0.00,0.00,VWS V14.01,2013-02-15 09:45:00,
2013-02-15 04:50:00,29.0,24.2,29.78,NNW,344,0.0,0.0,82,0.00,,OVC070,0.00,0.00,VWS V14.01,2013-02-15 09:50:00,
2013-02-15 04:55:00,28.8,24.0,29.78,WNW,283,0.0,0.0,82,0.00,,OVC070,0.00,0.00,VWS V14.01,2013-02-15 09:55:00,
2013-02-15 05:00:00,28.7,23.9,29.78,NW,315,0.0,0.0,82,0.00,,OVC070,0.00,0.00,VWS V14.01,2013-02-15 10:00:00,
2013-02-15 05:05:00,28.5,23.7,29.78,North,360,0.0,0.0,82,0.00,,OVC070,0.00,0.00,VWS V14.01,2013-02-15 10:05:00,
2013-02-15 05:10:00,28.4,23.6,29.78,North,360,2.0,0.0,82,0.00,,,0.00,0.00,VWS V14.01,2013-02-15 10:10:00,
2013-02-15 05:15:00,28.2,23.4,29.78,NNW,346,0.0,0.0,82,0.00,,,0.00,0.00,VWS V14.01,2013-02-15 10:15:00,
2013-02-15 05:20:00,28.2,23.4,29.80,North,355,0.0,0.0,82,0.00,,,0.00,0.00,VWS V14.01,2013-02-15 10:20:00,
2013-02-15 05:25:00,28.1,23.3,29.80,North,351,0.0,0.0,82,0.00,,,0.00,0.00,VWS V14.01,2013-02-15 10:25:00,
2013-02-15 05:30:00,28.1,23.3,29.80,North,351,0.0,0.0,82,0.00,,,0.00,0.00,VWS V14.01,2013-02-15 10:30:00,
2013-02-15 05:35:00,27.9,23.1,29.80,North,351,0.0,0.0,82,0.00,,,0.00,0.00,VWS V14.01,2013-02-15 10:35:00,
2013-02-15 05:40:00,27.9,23.1,29.80,North,351,0.0,0.0,82,0.00,,,0.00,0.00,VWS V14.01,2013-02-15 10:40:00,
2013-02-15 05:45:00,27.8,23.0,29.80,North,351,0.0,0.0,82,0.00,,,0.00,0.00,VWS V14.01,2013-02-15 10:45:00,
2013-02-15 05:50:00,27.8,23.0,29.81,North,351,0.0,0.0,82,0.00,,,0.00,0.00,VWS V14.01,2013-02-15 10:50:00,
2013-02-15 05:55:00,27.8,23.0,29.81,North,351,0.0,0.0,82,0.00,,,0.00,0.00,VWS V14.01,2013-02-15 10:55:00,
2013-02-15 06:00:00,27.8,23.0,29.81,North,351,0.0,0.0,82,0.00,,,0.00,0.00,VWS V14.01,2013-02-15 11:00:00,
2013-02-15 06:30:00,27.8,23.0,29.81,North,351,0.0,0.0,82,0.00,,,0.00,0.00,VWS V14.01,2013-02-15 11:30:00,
2013-02-15 07:00:00,27.6,23.1,29.81,North,0,0.0,2.0,83,0.00,,,0.00,0.00,VWS V14.01,2013-02-15 12:00:00,
2013-02-15 07:30:00,27.5,23.6,29.82,North,0,0.0,0.0,85,0.00,,,0.00,0.00,VWS V14.01,2013-02-15 12:30:00,
2013-02-15 08:00:00,27.5,23.9,29.83,North,0,0.0,0.0,86,0.00,,,0.00,0.00,VWS V14.01,2013-02-15 13:00:00,
2013-02-15 08:30:00,27.3,24.0,29.85,North,0,0.0,2.0,87,0.00,,,0.00,0.00,VWS V14.01,2013-02-15 13:30:00,
2013-02-15 09:00:00,26.7,23.4,29.86,NNW,338,0.0,5.0,87,0.00,,,0.00,3.00,VWS V14.01,2013-02-15 14:00:00,
2013-02-15 09:30:00,26.3,23.0,29.88,NW,315,0.0,5.0,87,0.00,,,0.00,9.00,VWS V14.01,2013-02-15 14:30:00,
2013-02-15 10:00:00,26.4,23.1,29.90,NNW,338,0.0,4.0,87,0.00,,,0.00,35.00,VWS V14.01,2013-02-15 15:00:00,
2013-02-15 10:30:00,26.4,22.8,29.91,NNW,338,1.0,5.0,86,0.00,,,0.00,44.00,VWS V14.01,2013-02-15 15:30:00,
2013-02-15 11:00:00,26.4,22.5,29.91,NNW,338,0.0,5.0,85,0.00,,,0.00,80.00,VWS V14.01,2013-02-15 16:00:00,
2013-02-15 11:30:00,27.2,23.3,29.91,NNW,338,0.0,4.0,85,0.00,,,0.00,105.00,VWS V14.01,2013-02-15 16:30:00,
2013-02-15 12:00:00,27.8,23.6,29.92,NNW,338,0.0,4.0,84,0.01,,,0.01,97.00,VWS V14.01,2013-02-15 17:00:00,
2013-02-15 12:30:00,28.5,24.3,29.92,North,0,0.0,5.0,84,0.02,,,0.02,106.00,VWS V14.01,2013-02-15 17:30:00,
2013-02-15 13:00:00,27.8,22.4,29.93,NNW,338,1.0,8.0,80,0.03,,,0.03,161.00,VWS V14.01,2013-02-15 18:00:00,
2013-02-15 13:30:00,28.7,15.4,29.92,NW,315,1.0,7.0,57,0.02,,,0.03,325.00,VWS V14.01,2013-02-15 18:30:00,
2013-02-15 14:00:00,27.8,16.9,29.92,West,270,2.0,11.0,63,0.02,,,0.04,256.00,VWS V14.01,2013-02-15 19:00:00,
2013-02-15 14:30:00,27.5,16.9,29.92,NW,315,2.0,7.0,64,0.01,,,0.04,235.00,VWS V14.01,2013-02-15 19:30:00,
2013-02-15 15:00:00,27.5,16.2,29.92,NNW,338,1.0,12.0,62,0.01,,,0.04,183.00,VWS V14.01,2013-02-15 20:00:00,
2013-02-15 15:30:00,26.6,17.5,29.93,NW,315,2.0,9.0,68,0.00,,,0.04,155.00,VWS V14.01,2013-02-15 20:30:00,
2013-02-15 16:00:00,27.0,16.1,29.93,NW,315,1.0,6.0,63,0.00,,,0.04,144.00,VWS V14.01,2013-02-15 21:00:00,
2013-02-15 16:30:00,26.0,15.1,29.93,NW,315,1.0,5.0,63,0.00,,,0.04,98.00,VWS V14.01,2013-02-15 21:30:00,
2013-02-15 17:00:00,26.3,15.1,29.94,NW,315,1.0,9.0,62,0.00,,,0.04,95.00,VWS V14.01,2013-02-15 22:00:00,
2013-02-15 17:30:00,26.3,15.1,29.95,NNW,338,1.0,5.0,62,0.00,,,0.04,88.00,VWS V14.01,2013-02-15 22:30:00,
2013-02-15 18:00:00,26.1,15.2,29.95,North,0,0.0,5.0,63,0.00,,,0.04,68.00,VWS V14.01,2013-02-15 23:00:00,
2013-02-15 18:30:00,25.7,15.2,29.95,NNW,338,0.0,4.0,64,0.00,,,0.04,44.00,VWS V14.01,2013-02-15 23:30:00,
2013-02-15 19:00:00,25.3,15.9,29.96,WNW,292,0.0,6.0,67,0.00,,,0.04,13.00,VWS V14.01,2013-02-16 00:00:00,
2013-02-15 19:30:00,24.2,14.1,29.96,WNW,292,0.0,0.0,65,0.00,,,0.04,0.00,VWS V14.01,2013-02-16 00:30:00,
2013-02-15 20:00:00,22.7,12.7,29.97,WNW,292,0.0,0.0,65,0.00,,,0.04,0.00,VWS V14.01,2013-02-16 01:00:00,
2013-02-15 20:30:00,21.3,12.1,29.97,WNW,292,0.0,0.0,67,0.00,,,0.04,0.00,VWS V14.01,2013-02-16 01:30:00,
2013-02-15 21:00:00,19.9,11.4,29.97,WNW,292,0.0,0.0,69,0.00,,,0.04,0.00,VWS V14.01,2013-02-16 02:00:00,
2013-02-15 21:30:00,19.2,12.0,29.97,WNW,292,0.0,0.0,73,0.00,,,0.04,0.00,VWS V14.01,2013-02-16 02:30:00,
2013-02-15 22:00:00,19.7,13.4,29.97,WNW,292,0.0,0.0,76,0.00,,,0.04,0.00,VWS V14.01,2013-02-16 03:00:00,
2013-02-15 22:30:00,20.3,14.6,29.97,WNW,292,0.0,0.0,78,0.00,,,0.04,0.00,VWS V14.01,2013-02-16 03:30:00,
2013-02-15 23:00:00,21.3,15.8,29.96,SE,135,0.0,1.0,79,0.00,,,0.04,0.00,VWS V14.01,2013-02-16 04:00:00,
2013-02-15 23:30:00,21.8,16.0,29.95,SE,135,0.0,0.0,78,0.00,,,0.04,0.00,VWS V14.01,2013-02-16 04:30:00,